When you browse on this site, cookies collect data to enhance your experience and personalize the content and advertising you see.
Visit our Privacy Policy to learn more. By continuing to use the site, you agree to this use of cookies and data.
  • în România
  • Lista ţărilor
  • Pe 7 zile
  • Temperatura apei
  • Meteo pe hartă
  • Widget-uri
  • user-avatar
    Intrare

    Meteo pe oră la Morpeth

    Astăzi, 6 Iunie, Sâmbătă

    Timp Temperatura Precipitaţii Vânt Presiune Umiditate
    00:00 +5°C° 0 mm 9 m/s 734 mmHg 91%
    01:00 +5°C° 0.2 mm 9 m/s 734 mmHg 91%
    02:00 +6°C° 0.2 mm 9 m/s 734 mmHg 91%
    03:00 +6°C° 0.2 mm 8 m/s 733 mmHg 91%
    04:00 +6°C° 0.6 mm 9 m/s 734 mmHg 90%
    05:00 +6°C° 0.6 mm 10 m/s 734 mmHg 90%
    06:00 +6°C° 0.6 mm 11 m/s 734 mmHg 89%
    07:00 +6°C° 0.5 mm 11 m/s 735 mmHg 89%
    08:00 +7°C° 0.5 mm 11 m/s 736 mmHg 88%
    09:00 +7°C° 0.5 mm 11 m/s 736 mmHg 87%
    10:00 +8°C° 0.4 mm 10 m/s 737 mmHg 84%
    11:00 +9°C° 0.4 mm 10 m/s 738 mmHg 82%
    12:00 +11°C° 0.4 mm 10 m/s 739 mmHg 79%
    13:00 +11°C° 0.2 mm 9 m/s 740 mmHg 76%
    14:00 +12°C° 0.2 mm 9 m/s 741 mmHg 72%
    15:00 +12°C° 0.2 mm 8 m/s 741 mmHg 69%
    16:00 +12°C° 0 mm 7 m/s 742 mmHg 70%
    17:00 +11°C° 0 mm 6 m/s 742 mmHg 70%
    18:00 +12°C° 0 mm 5 m/s 743 mmHg 71%
    19:00 +10°C° 0 mm 5 m/s 744 mmHg 75%
    20:00 +10°C° 0 mm 4 m/s 744 mmHg 80%
    21:00 +8°C° 0 mm 3 m/s 745 mmHg 84%
    22:00 +8°C° 0.1 mm 4 m/s 745 mmHg 86%
    23:00 +8°C° 0.1 mm 4 m/s 745 mmHg 87%

    Mâine, 7 Iunie, Duminică

    Timp Temperatura Precipitaţii Vânt Presiune Umiditate
    00:00 +8°C° 0.1 mm 4 m/s 745 mmHg 89%
    01:00 +8°C° 0.4 mm 5 m/s 745 mmHg 91%
    02:00 +8°C° 0.4 mm 5 m/s 746 mmHg 92%
    03:00 +8°C° 0.4 mm 6 m/s 746 mmHg 93%
    04:00 +8°C° 0.8 mm 7 m/s 746 mmHg 93%
    05:00 +8°C° 0.8 mm 7 m/s 747 mmHg 93%
    06:00 +7°C° 0.8 mm 8 m/s 747 mmHg 94%
    07:00 +7°C° 0.3 mm 8 m/s 748 mmHg 92%
    08:00 +9°C° 0.3 mm 8 m/s 749 mmHg 91%
    09:00 +8°C° 0.3 mm 9 m/s 749 mmHg 89%
    10:00 +8°C° 0.1 mm 9 m/s 750 mmHg 86%
    11:00 +10°C° 0.1 mm 9 m/s 751 mmHg 82%
    12:00 +9°C° 0.1 mm 10 m/s 752 mmHg 78%
    13:00 +10°C° 0 mm 9 m/s 752 mmHg 76%
    14:00 +11°C° 0 mm 9 m/s 753 mmHg 74%
    15:00 +11°C° 0 mm 9 m/s 753 mmHg 71%
    16:00 +10°C° 0 mm 8 m/s 754 mmHg 72%
    17:00 +10°C° 0 mm 8 m/s 754 mmHg 72%
    18:00 +9°C° 0 mm 7 m/s 755 mmHg 73%
    19:00 +8°C° 0 mm 7 m/s 755 mmHg 76%
    20:00 +7°C° 0 mm 6 m/s 756 mmHg 80%
    21:00 +5°C° 0 mm 5 m/s 757 mmHg 83%
    22:00 +5°C° 0 mm 5 m/s 757 mmHg 83%
    23:00 +5°C° 0 mm 5 m/s 757 mmHg 82%

    Poimâine, 8 Iunie, Luni

    Timp Temperatura Precipitaţii Vânt Presiune Umiditate
    00:00 +4°C° 0 mm 4 m/s 757 mmHg 82%
    01:00 +4°C° 0 mm 4 m/s 758 mmHg 82%
    02:00 +4°C° 0 mm 4 m/s 758 mmHg 81%
    03:00 +4°C° 0 mm 4 m/s 758 mmHg 81%
    04:00 +5°C° 0 mm 4 m/s 759 mmHg 79%
    05:00 +6°C° 0 mm 5 m/s 759 mmHg 77%
    06:00 +6°C° 0 mm 5 m/s 759 mmHg 75%
    07:00 +7°C° 0 mm 5 m/s 759 mmHg 72%
    08:00 +8°C° 0 mm 5 m/s 760 mmHg 69%
    09:00 +9°C° 0 mm 5 m/s 760 mmHg 66%
    10:00 +9°C° 0 mm 5 m/s 760 mmHg 65%
    11:00 +9°C° 0 mm 5 m/s 760 mmHg 64%
    12:00 +10°C° 0 mm 4 m/s 760 mmHg 63%
    13:00 +11°C° 0 mm 4 m/s 760 mmHg 62%
    14:00 +11°C° 0 mm 4 m/s 761 mmHg 62%
    15:00 +11°C° 0 mm 4 m/s 761 mmHg 62%
    16:00 +11°C° 0 mm 3 m/s 761 mmHg 64%
    17:00 +11°C° 0 mm 3 m/s 761 mmHg 65%
    18:00 +10°C° 0 mm 3 m/s 761 mmHg 67%
    19:00 +9°C° 0 mm 2 m/s 761 mmHg 72%
    20:00 +7°C° 0 mm 2 m/s 761 mmHg 77%
    21:00 +7°C° 0 mm 1 m/s 762 mmHg 82%
    22:00 +6°C° 0 mm 1 m/s 762 mmHg 83%
    23:00 +6°C° 0 mm 1 m/s 762 mmHg 84%

    9 Iunie, Marţi

    Timp Temperatura Precipitaţii Vânt Presiune Umiditate
    00:00 +5°C° 0 mm 1 m/s 761 mmHg 85%
    01:00 +5°C° 0 mm 1 m/s 761 mmHg 85%
    02:00 +5°C° 0 mm 1 m/s 761 mmHg 85%
    03:00 +5°C° 0 mm 1 m/s 761 mmHg 85%
    04:00 +6°C° 0 mm 1 m/s 761 mmHg 82%
    05:00 +8°C° 0 mm 1 m/s 761 mmHg 80%
    06:00 +9°C° 0 mm 1 m/s 761 mmHg 77%
    07:00 +11°C° 0 mm 1 m/s 761 mmHg 74%
    08:00 +12°C° 0 mm 2 m/s 761 mmHg 70%
    09:00 +14°C° 0 mm 2 m/s 761 mmHg 67%
    10:00 +15°C° 0 mm 2 m/s 761 mmHg 66%
    11:00 +14°C° 0 mm 3 m/s 761 mmHg 65%
    12:00 +16°C° 0 mm 3 m/s 761 mmHg 64%
    13:00 +16°C° 0 mm 3 m/s 760 mmHg 65%
    14:00 +15°C° 0 mm 4 m/s 760 mmHg 65%
    15:00 +15°C° 0 mm 4 m/s 760 mmHg 66%
    16:00 +15°C° 0 mm 4 m/s 760 mmHg 69%
    17:00 +14°C° 0 mm 4 m/s 760 mmHg 72%
    18:00 +14°C° 0 mm 4 m/s 760 mmHg 75%
    19:00 +13°C° 0 mm 4 m/s 760 mmHg 76%
    20:00 +12°C° 0 mm 3 m/s 760 mmHg 78%
    21:00 +10°C° 0 mm 3 m/s 760 mmHg 80%
    22:00 +10°C° 0 mm 3 m/s 760 mmHg 81%
    23:00 +10°C° 0 mm 3 m/s 760 mmHg 82%

    10 Iunie, Miercuri

    Timp Temperatura Precipitaţii Vânt Presiune Umiditate
    00:00 +9°C° 0 mm 3 m/s 760 mmHg 83%
    01:00 +9°C° 0 mm 2 m/s 760 mmHg 85%
    02:00 +9°C° 0 mm 2 m/s 760 mmHg 87%
    03:00 +8°C° 0 mm 2 m/s 760 mmHg 88%
    04:00 +9°C° 0 mm 2 m/s 760 mmHg 85%
    05:00 +10°C° 0 mm 3 m/s 760 mmHg 82%
    06:00 +11°C° 0 mm 3 m/s 760 mmHg 80%
    07:00 +12°C° 0 mm 3 m/s 760 mmHg 79%
    08:00 +12°C° 0 mm 3 m/s 760 mmHg 79%
    09:00 +13°C° 0 mm 3 m/s 761 mmHg 78%
    10:00 +13°C° 0 mm 3 m/s 761 mmHg 80%
    11:00 +13°C° 0 mm 4 m/s 761 mmHg 81%
    12:00 +13°C° 0 mm 4 m/s 761 mmHg 82%
    13:00 +14°C° 0 mm 4 m/s 761 mmHg 80%
    14:00 +17°C° 0 mm 4 m/s 761 mmHg 77%
    15:00 +18°C° 0 mm 4 m/s 761 mmHg 75%
    16:00 +18°C° 0 mm 4 m/s 761 mmHg 76%
    17:00 +18°C° 0 mm 4 m/s 761 mmHg 77%
    18:00 +17°C° 0 mm 4 m/s 761 mmHg 78%
    19:00 +16°C° 0 mm 3 m/s 761 mmHg 82%
    20:00 +14°C° 0 mm 3 m/s 762 mmHg 87%
    21:00 +12°C° 0 mm 3 m/s 762 mmHg 91%
    22:00 +12°C° 0 mm 3 m/s 762 mmHg 91%
    23:00 +11°C° 0 mm 3 m/s 762 mmHg 92%

    11 Iunie, Joi

    Timp Temperatura Precipitaţii Vânt Presiune Umiditate
    00:00 +11°C° 0 mm 3 m/s 762 mmHg 92%
    01:00 +11°C° 0 mm 3 m/s 762 mmHg 93%
    02:00 +10°C° 0 mm 3 m/s 762 mmHg 93%
    03:00 +10°C° 0 mm 3 m/s 762 mmHg 93%
    04:00 +12°C° 0 mm 2 m/s 762 mmHg 92%
    05:00 +13°C° 0 mm 2 m/s 762 mmHg 90%
    06:00 +15°C° 0 mm 2 m/s 762 mmHg 89%
    07:00 +16°C° 0 mm 2 m/s 762 mmHg 84%
    08:00 +19°C° 0 mm 1 m/s 762 mmHg 79%
    09:00 +21°C° 0 mm 1 m/s 762 mmHg 74%
    10:00 +21°C° 0 mm 1 m/s 762 mmHg 73%
    11:00 +21°C° 0 mm 2 m/s 762 mmHg 72%
    12:00 +21°C° 0 mm 2 m/s 762 mmHg 71%
    13:00 +21°C° 0.1 mm 2 m/s 761 mmHg 72%
    14:00 +21°C° 0.1 mm 3 m/s 761 mmHg 72%
    15:00 +21°C° 0.1 mm 3 m/s 761 mmHg 72%
    16:00 +20°C° 0 mm 3 m/s 761 mmHg 74%
    17:00 +19°C° 0 mm 3 m/s 760 mmHg 75%
    18:00 +18°C° 0 mm 3 m/s 760 mmHg 77%
    19:00 +17°C° 0 mm 2 m/s 760 mmHg 79%
    20:00 +16°C° 0 mm 2 m/s 760 mmHg 81%
    21:00 +14°C° 0 mm 2 m/s 760 mmHg 84%
    22:00 +14°C° 0 mm 2 m/s 760 mmHg 85%
    23:00 +13°C° 0 mm 2 m/s 760 mmHg 86%
    Arată mai mult